Tracking 19634 objects as of 23-May-2019
HD Live streaming from Space Station
objects crossing your sky now

IRIDIUM 36

Track IRIDIUM 36 now!
10-day predictions
IRIDIUM 36 is classified as:


NORAD ID: 24967
Int'l Code: 1997-056C
Perigee: 778.2 km
Apogee: 781.5 km
Inclination: 86.4 °
Period: 100.3 minutes
Semi major axis: 7150 km
RCS: 3.602 m2 (large)
Launch date: September 27, 1997
Source: United States (US)
Launch site: AIR FORCE WESTERN TEST RANGE (AFWTR)
aabbcc
Your satellite tracking list
Your tracking list is empty




NASA's NSSDC Master Catalog

Two Line Element Set (TLE):
1 24967U 97056C   19142.29429207  .00000108  00000-0  30692-4 0  9990
2 24967  86.3999  22.8602 0002303  81.3871 278.7587 14.35718540133885
Source of the keplerian elements: AFSPC